Weather Roundup
Issued by NWS

Home | Current Version | Previous Version | Graphics & Text | Print | Product List | Glossary Off
Versions: 1 2 3 4 5 6 7 8 9 10 11 12 13 14 15 16 17 18 19 20 21 22 23 24 25 26 27 28 29 30 31 32 33 34 35 36 37 38 39 40 41 42 43 44 45 46 47 48 49 50

070
NZUS93 KARX 201259
HRRWXR

CURRENT HOURLY OBSERVATIONS ACROSS
MUCH OF THE UPPER MISSISSIPPI VALLEY
NATIONAL WEATHER SERVICE LA CROSSE WI
800 AM CDT WED SEP 20 2017


...SOUTHEAST MINNESOTA...


CITY           SKY/WX    TMP DP  RH WIND       PRES   REMARKS
ROCHESTER      PTSUNNY   69  65  86 S14       29.71R
ROCHESTER/MAYO FAIR      70  66  86 SE12G17   29.70F
WINONA         SUNNY     72  63  73 SE6       29.72S
AUSTIN         CLOUDY    70  64  83 S9        29.71R
ALBERT LEA     CLOUDY    72  70  94 S8        29.69S
DODGE CENTER   MOSUNNY   70  64  83 S13G20    29.70S
PRESTON        CLOUDY    69  64  82 S9G16     29.74R
OWATONNA       SUNNY     68  64  88 S6        29.69R
FARIBAULT      CLOUDY    70  66  88 S6        29.69R
$$

...ELSEWHERE IN MINNESOTA...


CITY           SKY/WX    TMP DP  RH WIND       PRES   REMARKS
MINNEAPOLIS    PTSUNNY   70  68  93 SW7       29.64R
INTNL FALLS    CLOUDY    63  60  90 S12G23    29.54R
DULUTH         CLOUDY    61  61 100 SE16      29.66S
RED WING       CLOUDY    73  63  68 SE9       29.65F
REDWOOD FALLS  CLEAR     59  55  87 W10       29.71R
MANKATO        PTCLDY    64  61  90 W10       29.70R
WORTHINGTON    CLEAR     57  53  86 W10       29.76R
FAIRMONT       CLEAR     62  58  86 W9        29.72R
$$

...SOUTHWEST WISCONSIN...


CITY           SKY/WX    TMP DP  RH WIND       PRES   REMARKS
LA CROSSE      SUNNY     71  65  81 S13       29.74S
PRAIRIE DU CHI MOSUNNY   69  62  78 SE7       29.78R
BOSCOBEL       MOSUNNY   71  63  75 CALM      29.80R
LONE ROCK      NOT AVBL
PLATTEVILLE    CLOUDY    67  66  99 SE10      29.82R
FORT MC COY    PTSUNNY   66  63  90 S5        29.78R
CAMP DOUGLAS   TSTM      66  64  94 S6        29.80R
MAUSTON-NEW LI CLOUDY    66  63  90 SE9       29.79R
VIROQUA        FAIR      66  64  96 S9        29.80R
WIS DELLS      NOT AVBL
$$

...ELSEWHERE IN WISCONSIN...


CITY           SKY/WX    TMP DP  RH WIND       PRES   REMARKS
MILWAUKEE      CLOUDY    68  68 100 SE10      29.92R FOG
MADISON        PTSUNNY   68  64  87 S15       29.84S
GREEN BAY      CLOUDY    65  65 100 SE13      29.88F FOG
EAU CLAIRE     CLOUDY    65  63  93 SE9       29.71R
BLACK RVR FLS  FAIR      65  65  99 CALM      29.76S
MEDFORD        CLOUDY    61  60  96 SE5       29.82S THUNDER FOG
WAUSAU         TSTM      63  61  93 SE9       29.81R FOG
WIS RAPIDS     CLOUDY    65  62  90 S6        29.82R THUNDER
MARSHFIELD     CLOUDY    64  60  87 S10       29.80R
RICE LAKE      CLOUDY    65  63  91 SE14G20   29.71S FOG
$$

...NORTHEAST IOWA...


CITY           SKY/WX    TMP DP  RH WIND       PRES   REMARKS
WATERLOO       SUNNY     70  65  84 S16       29.72S
DUBUQUE        PTSUNNY   67  64  90 S13       29.82R
DECORAH        MOSUNNY   70  64  83 S10G18    29.74S
MASON CITY     PTSUNNY   69  66  90 S8        29.73R
CHARLES CITY   CLOUDY    72  68  88 S10G17    29.74R
OELWEIN        MOSUNNY   70  68  94 SE12      29.77S
$$

...ELSEWHERE IN IOWA...


CITY           SKY/WX    TMP DP  RH WIND       PRES   REMARKS
DES MOINES     MOSUNNY   74  68  81 S8        29.72R
IOWA CITY      SUNNY     71  66  84 S8        29.82R
FORT DODGE     CLEAR     66  64  93 W3        29.72R
MARSHALLTOWN   SUNNY     70  67  90 S12       29.73R
CEDAR RAPIDS   SUNNY     70  66  87 S13       29.78R
$$

...NORTHERN ILLINOIS...


CITY           SKY/WX    TMP DP  RH WIND       PRES   REMARKS
CHICAGO-OHARE  MOSUNNY   69  65  86 SE9       29.91F
CHICAGO-MIDWAY MOSUNNY   70  65  84 SE8       29.92F
MOLINE         SUNNY     71  65  81 S8        29.83R
ROCKFORD       PTSUNNY   68  64  87 S8        29.88S
PEORIA         SUNNY     70  68  93 S3        29.89R
$$

NOTE: "FAIR" INDICATES FEW OR NO CLOUDS BELOW 12,000 FEET WITH NO
SIGNIFICANT WEATHER AND/OR OBSTRUCTIONS TO VISIBILITY. WIND
SPEEDS ARE IN MILES-PER-HOUR.




USA.gov is the U.S. government's official web portal to all federal, state and local government web resources and services.